sat.trackr.live / text

‹ back to catalog

OPTOS

NORAD 39420 · 2013-066E

PAYLOAD ACTIVE UNKNOWN

§ Identity

Operator
Country
SPN
Launch date
2013-11-21
Launch site
DLS
Launch vehicle
Mass (kg)
RCS (m²)
0.05

External: N2YO · Heavens-Above · Gunter

§ Orbital elements

Epoch: 2026-05-25T02:28:45.643584Z

Period
97.81 min
Inclination
97.6837°
Eccentricity
0.0118210
Mean motion
14.72255434 rev/d
Perigee alt
570.8 km
Apogee alt
737.0 km
Semi-major
7,032.0 km
B*
1.7118e-4
RAAN
11.2233°
Arg perigee
85.9812°
Mean anomaly
275.4899°
Rev number
66,812

§ Raw data

OPTOS1 39420U 13066E   26145.10330606  .00001155  00000+0  17118-3 0  99932 39420  97.6837  11.2233 0118210  85.9812 275.4899 14.72255434668122

JSON: /api/v1/satellites/39420 · /tle

For live sub-satellite position, see the globe view (requires WebGL).

§ Visibility from observer

Set your observer location to see the next 7 days of passes ≥ 10°. The values pass through the URL so the page stays shareable.

No JS? Fill the form by hand. The geolocation button needs JavaScript.